Puyallup, WA
on Tuesday, February 12, 2013

Tuesday
Previous Day Next Day
Daily Summary
 ActualAverage (KSEA)Record (KSEA)
Temperature
Mean Temperature °F 43°F  
Max Temperature 50°F 50°F 66°F (1963)
Min Temperature 42°F 37°F 21°F (1949)
Degree Days
Heating Degree Days 19 22  
Month to date heating degree days 264  
Since 1 July heating degree days 2913  
Cooling Degree Days 0 0  
Month to date cooling degree days 0  
Year to date cooling degree days 0  
Moisture
Dew Point 44°F   
Average Humidity 94    
Maximum Humidity 100    
Minimum Humidity 82    
Precipitation
Precipitation 0.00 in 0.12 in 1.23 in (1954)
Month to date precipitation 1.58  
Year to date precipitation 7.15  
Snow
Snow 0.00 in in 0.20 in (1995)
Month to date snowfall  
Since 1 July snowfall  
Snow Depth in   
Wind
Wind Speed 2 mph   
Max Wind Speed 12 mph   
Max Gust Speed 18 mph   
Visibility 9 miles   
Events Rain   

Key: T is trace of precipitation, MM is missing value
Source: NWS Daily Summary
Time(PST)TemperatureDew PointHumidity Pressure Visibility Wind DirectionWind SpeedGust SpeedPrecipitationEvents Conditions
12:15 AM 42.8°F 42.8°F 100% 30.36 in 10.0 miles Calm Calm - N/A   Overcast
12:35 AM 42.8°F 42.8°F 100% 30.36 in 10.0 miles Calm Calm - N/A   Mostly Cloudy
12:55 AM 42.8°F 42.8°F 100% 30.36 in 10.0 miles Calm Calm - N/A   Overcast
1:15 AM 42.8°F 42.8°F 100% 30.36 in 10.0 miles Calm Calm - N/A   Overcast
1:35 AM 42.8°F 42.8°F 100% 30.35 in 10.0 miles Calm Calm - N/A   Overcast
1:55 AM 42.8°F 42.8°F 100% 30.36 in 5.0 miles Calm Calm - N/A   Overcast
2:15 AM 42.8°F 42.8°F 100% 30.36 in 2.5 miles Calm Calm - N/A   Overcast
2:35 AM 42.8°F 42.8°F 100% 30.36 in 1.8 miles Calm Calm - N/A   Overcast
2:55 AM 42.8°F 42.8°F 100% 30.36 in 5.0 miles Calm Calm - N/A   Overcast
3:15 AM 42.8°F 42.8°F 100% 30.36 in 10.0 miles Calm Calm - N/A   Overcast
3:35 AM 42.8°F 42.8°F 100% 30.36 in 5.0 miles Calm Calm - N/A   Overcast
3:55 AM 42.8°F 42.8°F 100% 30.36 in 3.0 miles Calm Calm - N/A   Overcast
4:15 AM 42.8°F 42.8°F 100% 30.37 in 2.5 miles Calm Calm - N/A   Overcast
4:35 AM 42.8°F 42.8°F 100% 30.37 in 7.0 miles Calm Calm - N/A   Overcast
4:55 AM 42.8°F 42.8°F 100% 30.37 in 4.0 miles Calm Calm - N/A   Overcast
5:15 AM 42.8°F 42.8°F 100% 30.36 in 10.0 miles Calm Calm - N/A   Overcast
5:35 AM 42.8°F 42.8°F 100% 30.36 in 10.0 miles Calm Calm - N/A   Overcast
5:55 AM 42.8°F 42.8°F 100% 30.36 in 10.0 miles Calm Calm - N/A   Overcast
6:15 AM 42.8°F 42.8°F 100% 30.36 in 10.0 miles Calm Calm - N/A   Overcast
6:35 AM 42.8°F 42.8°F 100% 30.37 in 10.0 miles Calm Calm - N/A   Overcast
6:55 AM 42.8°F 42.8°F 100% 30.37 in 10.0 miles Calm Calm - N/A   Overcast
7:15 AM 44.6°F 44.6°F 100% 30.37 in 10.0 miles Calm Calm - N/A   Overcast
7:35 AM 44.6°F 44.6°F 100% 30.37 in 10.0 miles Calm Calm - N/A   Overcast
7:55 AM 44.6°F 44.6°F 100% 30.38 in 10.0 miles Calm Calm - N/A   Overcast
8:15 AM 44.6°F 44.6°F 100% 30.39 in 10.0 miles Calm Calm - N/A   Overcast
8:35 AM 44.6°F 44.6°F 100% 30.39 in 10.0 miles Calm Calm - N/A   Overcast
8:55 AM 44.6°F 44.6°F 100% 30.40 in 10.0 miles Calm Calm - N/A   Overcast
9:15 AM 44.6°F 44.6°F 100% 30.40 in 10.0 miles Calm Calm - N/A Rain Light Rain
9:35 AM 44.6°F 44.6°F 100% 30.40 in 10.0 miles Calm Calm - N/A   Overcast
9:55 AM 46.4°F 44.6°F 93% 30.40 in 10.0 miles South 5.8 mph - N/A   Mostly Cloudy
10:15 AM 46.4°F 44.6°F 93% 30.40 in 10.0 miles South 3.5 mph - N/A   Overcast
10:35 AM 46.4°F 44.6°F 93% 30.40 in 10.0 miles Calm Calm - N/A   Overcast
10:55 AM 46.4°F 44.6°F 93% 30.40 in 10.0 miles SW 3.5 mph - N/A   Overcast
11:15 AM 46.4°F 44.6°F 93% 30.41 in 10.0 miles SW 4.6 mph - N/A   Overcast
11:35 AM 48.2°F 44.6°F 87% 30.41 in 10.0 miles SW 6.9 mph - N/A   Overcast
11:55 AM 48.2°F 46.4°F 93% 30.42 in 10.0 miles SW 4.6 mph - N/A   Overcast
12:15 PM 46.4°F 46.4°F 100% 30.40 in 8.0 miles SW 6.9 mph - N/A   Overcast
12:35 PM 48.2°F 46.4°F 93% 30.40 in 10.0 miles SW 4.6 mph - N/A   Overcast
12:55 PM 48.2°F 46.4°F 93% 30.40 in 10.0 miles SW 4.6 mph - N/A   Overcast
1:15 PM 48.2°F 44.6°F 87% 30.39 in 10.0 miles SW 4.6 mph - N/A   Overcast
1:35 PM 48.2°F 44.6°F 87% 30.38 in 10.0 miles SW 4.6 mph - N/A   Overcast
1:55 PM 48.2°F 44.6°F 87% 30.38 in 10.0 miles SW 5.8 mph - N/A   Overcast
2:15 PM 48.2°F 44.6°F 87% 30.38 in 10.0 miles SW 5.8 mph - N/A   Overcast
2:35 PM 50.0°F 44.6°F 82% 30.38 in 10.0 miles SW 4.6 mph - N/A   Mostly Cloudy
2:55 PM 50.0°F 44.6°F 82% 30.37 in 10.0 miles SW 11.5 mph 17.3 mph N/A   Mostly Cloudy
3:15 PM 50.0°F 44.6°F 82% 30.36 in 10.0 miles SW 6.9 mph - N/A   Mostly Cloudy
3:35 PM 50.0°F 44.6°F 82% 30.35 in 10.0 miles SW 6.9 mph - N/A   Mostly Cloudy
3:55 PM 50.0°F 44.6°F 82% 30.37 in 10.0 miles WSW 5.8 mph - N/A   Mostly Cloudy
4:15 PM 50.0°F 44.6°F 82% 30.37 in 10.0 miles WSW 5.8 mph - N/A   Overcast
4:35 PM 50.0°F 44.6°F 82% 30.37 in 10.0 miles WSW 9.2 mph - N/A   Overcast
4:55 PM 50.0°F 44.6°F 82% 30.36 in 10.0 miles SW 9.2 mph - N/A   Overcast
5:15 PM 48.2°F 44.6°F 87% 30.36 in 10.0 miles WSW 11.5 mph 18.4 mph N/A   Mostly Cloudy
5:35 PM 48.2°F 44.6°F 87% 30.37 in 10.0 miles WSW 8.1 mph - N/A   Overcast
5:55 PM 48.2°F 44.6°F 87% 30.37 in 10.0 miles WSW 3.5 mph - N/A   Overcast
6:15 PM 48.2°F 46.4°F 93% 30.37 in 9.0 miles Calm Calm - N/A   Overcast
6:35 PM 46.4°F 46.4°F 100% 30.37 in 5.0 miles WSW 6.9 mph - N/A   Overcast
6:55 PM 46.4°F 46.4°F 100% 30.37 in 8.0 miles SW 5.8 mph - N/A   Overcast
7:15 PM 46.4°F 46.4°F 100% 30.37 in 3.0 miles SW 3.5 mph - N/A   Overcast
7:35 PM 46.4°F 46.4°F 100% 30.37 in 7.0 miles SSW 5.8 mph - N/A   Overcast
7:55 PM 46.4°F 46.4°F 100% 30.36 in 10.0 miles SSW 6.9 mph - N/A   Overcast
8:15 PM 46.4°F 46.4°F 100% 30.35 in 10.0 miles Calm Calm - N/A   Overcast
8:35 PM 46.4°F 44.6°F 93% 30.36 in 10.0 miles SW 4.6 mph - N/A   Mostly Cloudy
8:55 PM 46.4°F 44.6°F 93% 30.35 in 10.0 miles SW 6.9 mph - N/A   Mostly Cloudy
9:15 PM 46.4°F 44.6°F 93% 30.36 in 10.0 miles SW 8.1 mph - N/A   Mostly Cloudy
9:35 PM 46.4°F 44.6°F 93% 30.35 in 10.0 miles SW 8.1 mph - N/A   Overcast
9:55 PM 46.4°F 44.6°F 93% 30.35 in 10.0 miles Calm Calm - N/A   Overcast
10:15 PM 46.4°F 44.6°F 93% 30.35 in 10.0 miles SW 3.5 mph - N/A   Overcast
10:35 PM 46.4°F 44.6°F 93% 30.35 in 10.0 miles SSW 3.5 mph - N/A   Overcast
10:55 PM 48.2°F 44.6°F 87% 30.36 in 10.0 miles SW 4.6 mph - N/A   Overcast
11:15 PM 46.4°F 44.6°F 93% 30.35 in 10.0 miles SSW 3.5 mph - N/A   Overcast
11:35 PM 46.4°F 44.6°F 93% 30.36 in 10.0 miles SW 5.8 mph - N/A   Overcast
11:55 PM 46.4°F 42.8°F 87% 30.36 in 10.0 miles SSW 9.2 mph - N/A   Overcast
Moon Phase
Feb. 12 Feb. 17 Feb. 25 Mar. 04 Mar. 11
Sunrise:07:18 AM (PST) Moon Rise:08:03 AM (PST)2/12
Sunset:05:29 PM (PST) Moon Set:08:52 PM (PST)2/12

Copyright © 2014 The Weather Underground, Inc.